This is the latest recevied weather packets stored in our database for station/object WX1NWA. If no packets are shown the sender has not sent any weather packets the latest 10 day(s).
| Time | Temp. | Humidity | Pressure | Rain* | Wind** | Luminosity | Snow |
|---|---|---|---|---|---|---|---|
| 1777998315 | 15.56° C | 99% | 1009.1 hPa | 0 mm | - | 184 W/m² | - |
| 1777998012 | 15.56° C | 99% | 1008.8 hPa | 0 mm | - | 112 W/m² | - |
| 1777997709 | 16.11° C | 99% | 1009.1 hPa | 0 mm | - | 144 W/m² | - |
| 1777997406 | 15.56° C | 99% | 1009 hPa | 0 mm | - | 149 W/m² | - |
| 1777997104 | 16.11° C | 99% | 1009 hPa | 0 mm | - | 199 W/m² | - |
| 1777996800 | 15.56° C | 99% | 1009.2 hPa | 0 mm | - | 184 W/m² | - |
| 1777996496 | 15.56° C | 99% | 1008.7 hPa | 0 mm | - | 159 W/m² | - |
| 1777996193 | 15.56° C | 99% | 1009.1 hPa | 0 mm | - | 127 W/m² | - |
| 1777995889 | 15.56° C | 99% | 1009.1 hPa | 0 mm | - | 128 W/m² | - |
| 1777995585 | 15.56° C | 99% | 1009 hPa | 0 mm | - | 222 W/m² | - |
| 1777995283 | 15.56° C | 99% | 1008.9 hPa | 0 mm | - | 220 W/m² | - |
| 1777994980 | 15.56° C | 99% | 1009.3 hPa | 0 mm | - | 246 W/m² | - |
| 1777994678 | 15.56° C | 99% | 1009.1 hPa | 0 mm | - | 215 W/m² | - |
| 1777994378 | 15.56° C | 99% | 1009.3 hPa | 0 mm | - | 182 W/m² | - |
| 1777994074 | 15.56° C | 99% | 1009.3 hPa | 0 mm | - | 176 W/m² | - |
| 1777993771 | 15.56° C | 99% | 1009.5 hPa | 0 mm | - | 172 W/m² | - |
| 1777993468 | 15.56° C | 99% | 1009.7 hPa | 0 mm | - | 158 W/m² | - |
| 1777993168 | 15.56° C | 99% | 1009.7 hPa | 0 mm | - | 133 W/m² | - |
| 1777992866 | 15° C | 99% | 1009.5 hPa | 0 mm | - | 149 W/m² | - |
| 1777992564 | 15° C | 99% | 1009.3 hPa | 0 mm | - | 193 W/m² | - |
| 1777992262 | 15° C | 99% | 1009.6 hPa | 0 mm | - | 130 W/m² | - |
| 1777991959 | 15° C | 99% | 1009.6 hPa | 0 mm | - | 263 W/m² | - |
| 1777991656 | 15° C | 99% | 1009.5 hPa | 0 mm | - | 203 W/m² | - |
| 1777991353 | 15° C | 99% | 1009.5 hPa | 0 mm | - | 170 W/m² | - |
| 1777991051 | 15° C | 99% | 1009.5 hPa | 0 mm | - | 156 W/m² | - |
* Rain latest hour (hover to see other rain measurements)
** Current wind speed in m/s (hover to see current wind gust speed)